C/2016 T2 ( Matheny )

Japanese version
Home page
Updated on December 31, 2016

---------------------------------------------------------------------

* Profile

Discovery Date October 10, 2016
Magnitude 18.6 mag
Discoverer Rose G. Matheny (Mount Lemmon Survey)

* Pictures

* Orbital Elements

Epoch 2017 Jan. 7.0 TT = JDT 2457760.5
T 2016 Dec. 29.16692 TT                                 MPCW
q   1.9072751            (2000.0)            P               Q
z  +0.0099170      Peri.   92.32354     +0.01605524     -0.93555601
 +/-0.0003914      Node   339.08899     -0.25010979     +0.33788328
e   0.9810856      Incl.   81.30259     +0.96808436     +0.10280973
From 111 observations 2016 Oct. 10-Nov. 7, mean residual 0".6.

* Magnitudes Graph

        m1 = 13.0 + 5 log d + 10.0 log r

---------------------------------------------------------------------

The orbital elements are published on M.P.E.C. 2016-V116.
The magnitudes graphs are made with Comet for Windows.

---------------------------------------------------------------------

Copyright(C) Seiichi Yoshida (comet@aerith.net). All rights reserved.